• In France
  • List of Countries
  • For 7 days
  • Water Temperature
  • Satellite Maps
  • Weather Map
  • Weather Widgets
  • user-avatar
    Login

    Hourly Weather Lyatovka

    Today, 20 September, Thursday

    Time Temperature Precipitation Wind Pressure Humidity
    00:00 +14°C° 0 mm 3 mps 756 mmHg 93%
    01:00 +13°C° 0 mm 3 mps 756 mmHg 94%
    02:00 +13°C° 0 mm 3 mps 757 mmHg 96%
    03:00 +13°C° 0 mm 3 mps 757 mmHg 96%
    04:00 +12°C° 0 mm 3 mps 757 mmHg 97%
    05:00 +12°C° 0 mm 3 mps 757 mmHg 97%
    06:00 +13°C° 0 mm 3 mps 757 mmHg 95%
    07:00 +14°C° 0 mm 3 mps 757 mmHg 92%
    08:00 +16°C° 0 mm 3 mps 758 mmHg 89%
    09:00 +17°C° 0 mm 3 mps 758 mmHg 83%
    10:00 +19°C° 0 mm 3 mps 758 mmHg 77%
    11:00 +20°C° 0 mm 4 mps 758 mmHg 72%
    12:00 +21°C° 0 mm 4 mps 758 mmHg 68%
    13:00 +22°C° 0 mm 4 mps 758 mmHg 64%
    14:00 +23°C° 0 mm 4 mps 757 mmHg 61%
    15:00 +24°C° 0 mm 3 mps 757 mmHg 65%
    16:00 +22°C° 0 mm 3 mps 757 mmHg 69%
    17:00 +22°C° 0 mm 3 mps 757 mmHg 73%
    18:00 +20°C° 0 mm 3 mps 757 mmHg 79%
    19:00 +19°C° 0 mm 3 mps 757 mmHg 85%
    20:00 +18°C° 0 mm 2 mps 757 mmHg 90%
    21:00 +17°C° 0 mm 2 mps 757 mmHg 92%
    22:00 +17°C° 0 mm 2 mps 757 mmHg 93%
    23:00 +17°C° 0 mm 2 mps 758 mmHg 95%

    Tomorrow, 21 September, Friday

    Time Temperature Precipitation Wind Pressure Humidity
    00:00 +16°C° 0 mm 3 mps 758 mmHg 95%
    01:00 +16°C° 0 mm 3 mps 758 mmHg 96%
    02:00 +16°C° 0 mm 3 mps 758 mmHg 96%
    03:00 +16°C° 0 mm 3 mps 758 mmHg 96%
    04:00 +16°C° 0 mm 3 mps 758 mmHg 96%
    05:00 +16°C° 0 mm 3 mps 758 mmHg 95%
    06:00 +17°C° 0 mm 3 mps 758 mmHg 92%
    07:00 +17°C° 0 mm 3 mps 758 mmHg 88%
    08:00 +18°C° 0 mm 3 mps 758 mmHg 85%
    09:00 +19°C° 0 mm 3 mps 758 mmHg 78%
    10:00 +21°C° 0 mm 3 mps 757 mmHg 72%
    11:00 +24°C° 0 mm 3 mps 757 mmHg 65%
    12:00 +25°C° 0 mm 4 mps 757 mmHg 63%
    13:00 +26°C° 0 mm 4 mps 756 mmHg 60%
    14:00 +27°C° 0 mm 5 mps 756 mmHg 58%
    15:00 +26°C° 0 mm 4 mps 755 mmHg 62%
    16:00 +25°C° 0 mm 4 mps 755 mmHg 66%
    17:00 +25°C° 0 mm 3 mps 754 mmHg 69%
    18:00 +23°C° 0 mm 4 mps 754 mmHg 71%
    19:00 +22°C° 0 mm 4 mps 754 mmHg 73%
    20:00 +21°C° 0 mm 5 mps 754 mmHg 75%
    21:00 +21°C° 0 mm 5 mps 753 mmHg 74%
    22:00 +20°C° 0 mm 6 mps 752 mmHg 72%
    23:00 +20°C° 0 mm 6 mps 752 mmHg 71%

    Day after tomorrow, 22 September, Saturday

    Time Temperature Precipitation Wind Pressure Humidity
    00:00 +20°C° 0 mm 6 mps 751 mmHg 71%
    01:00 +20°C° 0 mm 6 mps 751 mmHg 70%
    02:00 +19°C° 0 mm 6 mps 750 mmHg 69%
    03:00 +19°C° 0.1 mm 6 mps 750 mmHg 70%
    04:00 +19°C° 0.1 mm 6 mps 750 mmHg 71%
    05:00 +17°C° 0.1 mm 6 mps 750 mmHg 72%
    06:00 +15°C° 0.7 mm 5 mps 750 mmHg 78%
    07:00 +14°C° 0.7 mm 5 mps 750 mmHg 83%
    08:00 +12°C° 0.7 mm 4 mps 751 mmHg 88%
    09:00 +12°C° 0.2 mm 5 mps 751 mmHg 84%
    10:00 +13°C° 0.2 mm 5 mps 751 mmHg 80%
    11:00 +14°C° 0.2 mm 5 mps 751 mmHg 77%
    12:00 +14°C° 0 mm 6 mps 751 mmHg 72%
    13:00 +15°C° 0 mm 6 mps 751 mmHg 67%
    14:00 +16°C° 0 mm 6 mps 751 mmHg 62%
    15:00 +15°C° 0.3 mm 5 mps 751 mmHg 66%
    16:00 +14°C° 0.3 mm 5 mps 751 mmHg 71%
    17:00 +13°C° 0.3 mm 5 mps 751 mmHg 75%
    18:00 +12°C° 0.1 mm 5 mps 751 mmHg 78%
    19:00 +11°C° 0.1 mm 4 mps 752 mmHg 81%
    20:00 +10°C° 0.1 mm 4 mps 752 mmHg 85%
    21:00 +10°C° 0 mm 4 mps 752 mmHg 85%
    22:00 +8°C° 0 mm 4 mps 752 mmHg 85%
    23:00 +8°C° 0 mm 4 mps 752 mmHg 86%

    23 September, Sunday

    Time Temperature Precipitation Wind Pressure Humidity
    00:00 +8°C° 0 mm 4 mps 752 mmHg 86%
    01:00 +7°C° 0 mm 4 mps 752 mmHg 87%
    02:00 +7°C° 0 mm 4 mps 752 mmHg 88%
    03:00 +7°C° 0 mm 4 mps 751 mmHg 89%
    04:00 +7°C° 0 mm 4 mps 751 mmHg 90%
    05:00 +7°C° 0 mm 5 mps 751 mmHg 90%
    06:00 +8°C° 0 mm 5 mps 751 mmHg 88%
    07:00 +8°C° 0 mm 5 mps 750 mmHg 85%
    08:00 +9°C° 0 mm 5 mps 750 mmHg 82%
    09:00 +10°C° 0.1 mm 5 mps 750 mmHg 78%
    10:00 +12°C° 0.1 mm 5 mps 750 mmHg 74%
    11:00 +13°C° 0.1 mm 6 mps 749 mmHg 69%
    12:00 +13°C° 0.4 mm 6 mps 749 mmHg 70%
    13:00 +13°C° 0.4 mm 6 mps 749 mmHg 70%
    14:00 +13°C° 0.4 mm 6 mps 749 mmHg 70%
    15:00 +13°C° 0.2 mm 5 mps 749 mmHg 74%
    16:00 +12°C° 0.2 mm 5 mps 749 mmHg 77%
    17:00 +12°C° 0.2 mm 4 mps 749 mmHg 80%
    18:00 +11°C° 0 mm 4 mps 750 mmHg 84%
    19:00 +10°C° 0 mm 4 mps 750 mmHg 87%
    20:00 +8°C° 0 mm 4 mps 750 mmHg 90%
    21:00 +8°C° 0 mm 4 mps 750 mmHg 92%
    22:00 +8°C° 0 mm 3 mps 751 mmHg 93%
    23:00 +8°C° 0 mm 3 mps 751 mmHg 94%

    24 September, Monday

    Time Temperature Precipitation Wind Pressure Humidity
    00:00 +7°C° 0 mm 3 mps 751 mmHg 95%
    01:00 +7°C° 0 mm 2 mps 751 mmHg 96%
    02:00 +7°C° 0 mm 2 mps 751 mmHg 96%
    03:00 +6°C° 0 mm 2 mps 751 mmHg 97%
    04:00 +7°C° 0 mm 1 mps 751 mmHg 97%
    05:00 +7°C° 0 mm 1 mps 750 mmHg 97%
    06:00 +8°C° 0 mm 1 mps 750 mmHg 95%
    07:00 +8°C° 0 mm 1 mps 750 mmHg 94%
    08:00 +8°C° 0 mm 2 mps 750 mmHg 92%
    09:00 +9°C° 0 mm 2 mps 749 mmHg 87%
    10:00 +10°C° 0 mm 3 mps 749 mmHg 82%
    11:00 +11°C° 0 mm 3 mps 748 mmHg 77%
    12:00 +11°C° 0.3 mm 3 mps 748 mmHg 79%
    13:00 +11°C° 0.3 mm 4 mps 747 mmHg 80%
    14:00 +11°C° 0.3 mm 4 mps 746 mmHg 82%
    15:00 +10°C° 1.5 mm 4 mps 745 mmHg 85%
    16:00 +8°C° 1.5 mm 5 mps 745 mmHg 88%
    17:00 +8°C° 1.5 mm 5 mps 744 mmHg 91%
    18:00 +7°C° 1.2 mm 6 mps 743 mmHg 91%
    19:00 +7°C° 1.2 mm 6 mps 742 mmHg 92%
    20:00 +7°C° 1.2 mm 6 mps 741 mmHg 92%
    21:00 +7°C° 1.6 mm 6 mps 741 mmHg 93%
    22:00 +5°C° 1.6 mm 6 mps 740 mmHg 93%
    23:00 +5°C° 1.6 mm 6 mps 739 mmHg 94%

    25 September, Tuesday

    Time Temperature Precipitation Wind Pressure Humidity
    00:00 +5°C° 1.8 mm 7 mps 739 mmHg 93%
    01:00 +5°C° 1.8 mm 7 mps 738 mmHg 93%
    02:00 +5°C° 1.8 mm 8 mps 738 mmHg 92%
    03:00 +5°C° 1.2 mm 8 mps 738 mmHg 92%
    04:00 +5°C° 1.2 mm 8 mps 738 mmHg 91%
    05:00 +5°C° 1.2 mm 8 mps 738 mmHg 90%
    06:00 +5°C° 1 mm 9 mps 738 mmHg 90%
    07:00 +5°C° 1 mm 9 mps 739 mmHg 90%
    08:00 +5°C° 1 mm 9 mps 739 mmHg 90%
    09:00 +6°C° 0.9 mm 9 mps 740 mmHg 89%
    10:00 +6°C° 0.9 mm 9 mps 740 mmHg 88%
    11:00 +6°C° 0.9 mm 10 mps 741 mmHg 88%
    12:00 +6°C° 0.6 mm 10 mps 742 mmHg 87%
    13:00 +6°C° 0.6 mm 10 mps 743 mmHg 87%
    14:00 +5°C° 0.6 mm 10 mps 744 mmHg 86%
    15:00 +5°C° 0.3 mm 10 mps 745 mmHg 85%
    16:00 +5°C° 0.3 mm 9 mps 746 mmHg 84%
    17:00 +5°C° 0.3 mm 9 mps 747 mmHg 82%
    18:00 +3°C° 0.1 mm 9 mps 747 mmHg 81%
    19:00 +3°C° 0.1 mm 9 mps 748 mmHg 80%
    20:00 +4°C° 0.1 mm 8 mps 749 mmHg 79%
    21:00 +4°C° 0 mm 8 mps 749 mmHg 78%
    22:00 +4°C° 0 mm 8 mps 750 mmHg 77%
    23:00 +4°C° 0 mm 8 mps 750 mmHg 77%
    Show more